Voltar ao catálogo

STARLINK-4322

AtivoComunicaçõesSSO
NORAD 53078·PAYLOAD·🇺🇸 United States

Lançado Jul 11, 2022 de Vandenberg Space Force Base

Loading…

Próximas Passagens (próximas 24 horas)

TLE

AtualizadoSource: CelesTrak SupGP

Época: Sep 14, 2026, 21:46 UTC

1 53078C 22077AM  26257.90743056  .00065746  00000+0  20404-2 0  2573
2 53078  97.2856  72.7606 0001570  94.3956 300.8749 15.33414198    10

Acompanhe STARLINK-4322 em tempo real com AllMySat

Download on the App Store